Time,TemperatureF,DewpointF,PressureIn,WindDirection,WindDirectionDegrees,WindSpeedMPH,WindSpeedGustMPH,Humidity,HourlyPrecipIn,Conditions,Clouds,dailyrainin,SoftwareType,DateUTC
2013-02-28 00:00:00,25.5,19.9,29.00,NNW,338,0.0,0.0,79,0.00,,---,0.00,VWS V14.01,2013-02-28 06:00:00,
2013-02-28 00:01:00,25.5,19.9,29.00,West,270,2.5,2.5,79,0.00,,---,0.00,VWS V14.01,2013-02-28 06:01:00,
2013-02-28 00:02:00,25.5,19.9,29.00,NNW,338,0.0,2.5,79,0.00,,---,0.00,VWS V14.01,2013-02-28 06:02:00,
2013-02-28 00:03:00,25.5,19.9,29.00,NNW,338,0.0,0.0,79,0.00,,---,0.00,VWS V14.01,2013-02-28 06:03:00,
2013-02-28 00:04:00,25.5,19.9,29.00,WNW,292,0.0,0.0,79,0.00,,---,0.00,VWS V14.01,2013-02-28 06:04:00,
2013-02-28 00:05:00,25.5,19.9,29.00,NNW,338,0.0,0.0,79,0.00,,---,0.00,VWS V14.01,2013-02-28 06:05:00,
2013-02-28 00:06:00,25.5,19.9,29.00,NNW,338,0.0,1.1,79,0.00,,---,0.00,VWS V14.01,2013-02-28 06:06:00,
2013-02-28 00:07:00,25.5,19.9,29.00,NNW,338,0.0,0.0,79,0.00,,---,0.00,VWS V14.01,2013-02-28 06:07:00,
2013-02-28 00:08:00,25.5,19.9,29.00,WNW,292,0.0,0.0,79,0.00,,---,0.00,VWS V14.01,2013-02-28 06:08:00,
2013-02-28 00:09:00,24.8,19.5,29.00,WNW,292,0.0,0.0,80,0.00,,---,0.00,VWS V14.01,2013-02-28 06:09:00,
2013-02-28 00:10:00,25.5,19.9,29.00,NW,315,0.0,2.7,79,0.00,,---,0.00,VWS V14.01,2013-02-28 06:10:00,
2013-02-28 00:11:00,25.5,19.9,29.00,NNW,338,1.3,1.3,79,0.00,,---,0.00,VWS V14.01,2013-02-28 06:11:00,
2013-02-28 00:12:00,24.8,19.5,29.00,NNW,338,0.0,1.6,80,0.00,,---,0.00,VWS V14.01,2013-02-28 06:12:00,
2013-02-28 00:13:00,24.8,19.5,29.00,SSW,202,1.1,1.1,80,0.00,,---,0.00,VWS V14.01,2013-02-28 06:13:00,
2013-02-28 00:14:00,24.6,19.3,29.00,NNW,338,0.0,2.0,80,0.00,,---,0.00,VWS V14.01,2013-02-28 06:14:00,
2013-02-28 00:15:00,24.8,19.5,29.00,NNW,338,0.0,2.5,80,0.00,,---,0.00,VWS V14.01,2013-02-28 06:15:00,
2013-02-28 00:16:00,24.8,19.5,29.00,WNW,292,1.6,1.6,80,0.00,,---,0.00,VWS V14.01,2013-02-28 06:16:00,
2013-02-28 00:17:00,24.6,19.3,29.00,SW,225,2.0,2.0,80,0.00,,---,0.00,VWS V14.01,2013-02-28 06:17:00,
2013-02-28 00:18:00,24.6,19.3,29.00,NNW,338,0.0,2.0,80,0.00,,---,0.00,VWS V14.01,2013-02-28 06:18:00,
2013-02-28 00:19:00,24.6,19.3,29.00,NNW,338,3.1,3.1,80,0.00,,---,0.00,VWS V14.01,2013-02-28 06:19:00,
2013-02-28 00:20:00,24.6,19.3,29.00,WNW,292,0.9,3.4,80,0.00,,---,0.00,VWS V14.01,2013-02-28 06:20:00,
2013-02-28 00:21:00,24.6,19.3,29.00,NNW,338,0.0,0.9,80,0.00,,---,0.00,VWS V14.01,2013-02-28 06:21:00,
2013-02-28 00:22:00,24.6,19.3,29.00,NNW,338,1.1,1.1,80,0.00,,---,0.00,VWS V14.01,2013-02-28 06:22:00,
2013-02-28 00:23:00,24.6,19.3,29.00,NNW,338,3.1,3.1,80,0.00,,---,0.00,VWS V14.01,2013-02-28 06:23:00,
2013-02-28 00:24:00,24.4,19.2,29.00,SW,225,0.0,1.1,80,0.00,,---,0.00,VWS V14.01,2013-02-28 06:24:00,
2013-02-28 00:25:00,24.4,19.2,29.00,WNW,292,2.5,2.7,80,0.00,,---,0.00,VWS V14.01,2013-02-28 06:25:00,
2013-02-28 00:26:00,24.4,19.2,29.00,WNW,292,2.5,2.5,80,0.00,,---,0.00,VWS V14.01,2013-02-28 06:26:00,
2013-02-28 00:27:00,24.4,19.2,29.00,NNW,338,1.1,2.5,80,0.00,,---,0.00,VWS V14.01,2013-02-28 06:27:00,
2013-02-28 00:28:00,24.4,19.2,29.00,SW,225,0.0,1.1,80,0.00,,---,0.00,VWS V14.01,2013-02-28 06:28:00,
2013-02-28 00:29:00,24.4,19.2,29.00,WNW,292,0.0,0.9,80,0.00,,---,0.00,VWS V14.01,2013-02-28 06:29:00,
2013-02-28 00:30:00,24.4,19.2,29.00,NNW,338,0.9,2.7,80,0.00,,---,0.00,VWS V14.01,2013-02-28 06:30:00,
2013-02-28 00:31:00,24.4,19.2,29.00,NNW,338,0.0,1.1,80,0.00,,---,0.00,VWS V14.01,2013-02-28 06:31:00,
2013-02-28 00:32:00,24.4,19.2,29.00,NNW,338,0.9,0.9,80,0.00,,---,0.00,VWS V14.01,2013-02-28 06:32:00,
2013-02-28 00:33:00,24.4,19.2,29.00,WNW,292,0.0,0.9,80,0.00,,---,0.00,VWS V14.01,2013-02-28 06:33:00,
2013-02-28 00:34:00,24.3,19.0,29.00,WNW,292,1.1,1.6,80,0.00,,---,0.00,VWS V14.01,2013-02-28 06:34:00,
2013-02-28 00:35:00,24.4,19.2,29.00,SW,225,2.5,2.5,80,0.00,,---,0.00,VWS V14.01,2013-02-28 06:35:00,
2013-02-28 00:36:00,24.4,19.2,29.00,WNW,292,1.1,2.5,80,0.00,,---,0.00,VWS V14.01,2013-02-28 06:36:00,
2013-02-28 00:37:00,24.4,19.2,29.00,NNW,338,1.1,1.1,80,0.00,,---,0.00,VWS V14.01,2013-02-28 06:37:00,
2013-02-28 00:38:00,24.3,19.0,29.00,WNW,292,1.1,1.6,80,0.00,,---,0.00,VWS V14.01,2013-02-28 06:38:00,
2013-02-28 00:39:00,24.3,19.0,29.00,NNW,338,1.1,1.1,80,0.00,,---,0.00,VWS V14.01,2013-02-28 06:39:00,
2013-02-28 00:40:00,24.3,19.0,29.00,NNW,338,2.2,2.5,80,0.00,,---,0.00,VWS V14.01,2013-02-28 06:40:00,
2013-02-28 00:41:00,24.3,19.0,29.00,WSW,248,1.6,2.2,80,0.00,,---,0.00,VWS V14.01,2013-02-28 06:41:00,
2013-02-28 00:42:00,24.3,19.0,29.00,NNW,338,0.0,1.6,80,0.00,,---,0.00,VWS V14.01,2013-02-28 06:42:00,
2013-02-28 00:43:00,24.3,19.0,29.00,WSW,248,0.0,0.0,80,0.00,,---,0.00,VWS V14.01,2013-02-28 06:43:00,
2013-02-28 00:44:00,24.1,18.8,29.00,NNW,338,0.0,1.3,80,0.00,,---,0.00,VWS V14.01,2013-02-28 06:44:00,
2013-02-28 00:45:00,24.3,19.0,29.00,SSE,158,0.0,0.0,80,0.00,,---,0.00,VWS V14.01,2013-02-28 06:45:00,
2013-02-28 00:46:00,24.1,18.8,29.00,NNW,338,2.0,2.0,80,0.00,,---,0.00,VWS V14.01,2013-02-28 06:46:00,
2013-02-28 00:47:00,24.1,18.8,29.00,WNW,292,1.6,3.4,80,0.00,,---,0.00,VWS V14.01,2013-02-28 06:47:00,
2013-02-28 00:48:00,24.1,18.8,29.00,NNW,338,1.3,1.6,80,0.00,,---,0.00,VWS V14.01,2013-02-28 06:48:00,
2013-02-28 00:49:00,24.1,18.8,29.00,SSE,158,1.6,1.6,80,0.00,,---,0.00,VWS V14.01,2013-02-28 06:49:00,
2013-02-28 00:50:00,24.1,18.8,29.00,WSW,248,0.0,2.5,80,0.00,,---,0.00,VWS V14.01,2013-02-28 06:50:00,
2013-02-28 00:51:00,24.1,18.8,29.00,WSW,248,0.0,0.0,80,0.00,,---,0.00,VWS V14.01,2013-02-28 06:51:00,
2013-02-28 00:52:00,24.1,18.8,29.00,WSW,248,0.0,0.0,80,0.00,,---,0.00,VWS V14.01,2013-02-28 06:52:00,
2013-02-28 00:53:00,24.1,18.8,29.00,SSE,158,1.6,2.5,80,0.00,,---,0.00,VWS V14.01,2013-02-28 06:53:00,
2013-02-28 00:54:00,24.1,18.8,29.00,WSW,248,2.7,2.7,80,0.00,,---,0.00,VWS V14.01,2013-02-28 06:54:00,
2013-02-28 00:55:00,23.9,18.6,29.00,WNW,292,1.1,2.7,80,0.00,,---,0.00,VWS V14.01,2013-02-28 06:55:00,
2013-02-28 00:56:00,23.9,18.6,29.00,ESE,112,0.0,2.7,80,0.00,,---,0.00,VWS V14.01,2013-02-28 06:56:00,
2013-02-28 00:57:00,23.9,18.6,29.00,ESE,112,0.0,0.0,80,0.00,,---,0.00,VWS V14.01,2013-02-28 06:57:00,
2013-02-28 00:58:00,23.9,18.6,29.00,SSE,158,2.7,2.7,80,0.00,,---,0.00,VWS V14.01,2013-02-28 06:58:00,
2013-02-28 00:59:00,23.9,18.6,29.00,NNW,338,0.0,2.7,80,0.00,,---,0.00,VWS V14.01,2013-02-28 06:59:00,
2013-02-28 01:00:00,23.9,18.6,29.00,NNW,338,0.0,0.0,80,0.00,,---,0.00,VWS V14.01,2013-02-28 07:00:00,
2013-02-28 01:01:00,23.9,18.6,29.00,NNW,338,0.0,2.0,80,0.00,,---,0.00,VWS V14.01,2013-02-28 07:01:00,
2013-02-28 01:02:00,23.9,18.6,29.00,North,0,0.0,0.0,80,0.00,,---,0.00,VWS V14.01,2013-02-28 07:02:00,
2013-02-28 01:03:00,23.9,18.6,29.00,NNW,338,0.0,1.1,80,0.00,,---,0.00,VWS V14.01,2013-02-28 07:03:00,
2013-02-28 01:04:00,23.9,18.6,29.00,NNW,338,0.0,0.0,80,0.00,,---,0.00,VWS V14.01,2013-02-28 07:04:00,
2013-02-28 01:05:00,23.7,18.5,29.00,NE,45,0.0,0.0,80,0.00,,---,0.00,VWS V14.01,2013-02-28 07:05:00,
2013-02-28 01:06:00,23.9,18.6,29.00,NNW,338,0.0,0.0,80,0.00,,---,0.00,VWS V14.01,2013-02-28 07:06:00,
2013-02-28 01:07:00,23.7,18.5,29.00,NW,315,0.0,0.0,80,0.00,,---,0.00,VWS V14.01,2013-02-28 07:07:00,
2013-02-28 01:08:00,23.7,18.5,29.00,WNW,292,0.0,0.0,80,0.00,,---,0.00,VWS V14.01,2013-02-28 07:08:00,
2013-02-28 01:09:00,23.7,18.5,29.00,NW,315,0.0,0.0,80,0.00,,---,0.00,VWS V14.01,2013-02-28 07:09:00,
2013-02-28 01:10:00,23.7,18.5,29.00,North,0,0.0,1.1,80,0.00,,---,0.00,VWS V14.01,2013-02-28 07:10:00,
2013-02-28 01:11:00,23.7,18.5,29.00,SW,225,0.9,0.9,80,0.00,,---,0.00,VWS V14.01,2013-02-28 07:11:00,
2013-02-28 01:12:00,23.7,18.5,29.00,NNW,338,0.0,0.9,80,0.00,,---,0.00,VWS V14.01,2013-02-28 07:12:00,
2013-02-28 01:13:00,23.7,18.5,29.00,NNW,338,1.1,2.0,80,0.00,,---,0.00,VWS V14.01,2013-02-28 07:13:00,
2013-02-28 01:14:00,23.7,18.5,29.00,North,0,0.0,1.1,80,0.00,,---,0.00,VWS V14.01,2013-02-28 07:14:00,
2013-02-28 01:15:00,23.5,18.3,29.00,WNW,292,2.0,2.0,80,0.00,,---,0.00,VWS V14.01,2013-02-28 07:15:00,
2013-02-28 01:16:00,23.7,18.5,29.00,NNW,338,0.0,0.9,80,0.00,,---,0.00,VWS V14.01,2013-02-28 07:16:00,
2013-02-28 01:17:00,23.7,18.5,29.00,NNW,338,2.0,2.9,80,0.00,,---,0.00,VWS V14.01,2013-02-28 07:17:00,
2013-02-28 01:18:00,23.5,18.3,29.00,SW,225,1.6,2.0,80,0.00,,---,0.00,VWS V14.01,2013-02-28 07:18:00,
2013-02-28 01:19:00,23.5,18.3,29.00,WNW,292,2.0,2.0,80,0.00,,---,0.00,VWS V14.01,2013-02-28 07:19:00,
2013-02-28 01:20:00,23.5,18.3,29.00,SW,225,1.6,1.6,80,0.00,,---,0.00,VWS V14.01,2013-02-28 07:20:00,
2013-02-28 01:21:00,23.5,18.3,29.00,WNW,292,0.0,1.1,80,0.00,,---,0.00,VWS V14.01,2013-02-28 07:21:00,
2013-02-28 01:22:00,23.5,18.3,29.00,WSW,248,0.0,0.0,80,0.00,,---,0.00,VWS V14.01,2013-02-28 07:22:00,
2013-02-28 01:23:00,23.5,18.3,29.00,SW,225,1.6,1.6,80,0.00,,---,0.00,VWS V14.01,2013-02-28 07:23:00,
2013-02-28 01:24:00,23.5,18.3,29.00,WNW,292,2.5,2.5,80,0.00,,---,0.00,VWS V14.01,2013-02-28 07:24:00,
2013-02-28 01:25:00,23.5,18.3,29.00,NNW,338,0.9,1.6,80,0.00,,---,0.00,VWS V14.01,2013-02-28 07:25:00,
2013-02-28 01:26:00,23.5,18.3,29.00,WSW,248,1.6,1.6,80,0.00,,---,0.00,VWS V14.01,2013-02-28 07:26:00,
2013-02-28 01:27:00,23.5,18.3,29.00,WSW,248,1.6,1.6,80,0.00,,---,0.00,VWS V14.01,2013-02-28 07:27:00,
2013-02-28 01:28:00,23.5,18.3,29.00,WSW,248,1.6,1.6,80,0.00,,---,0.00,VWS V14.01,2013-02-28 07:28:00,
2013-02-28 01:29:00,23.5,18.3,29.00,NNW,338,0.9,1.6,80,0.00,,---,0.00,VWS V14.01,2013-02-28 07:29:00,
2013-02-28 01:30:00,23.5,18.3,29.00,NNW,338,1.6,1.6,80,0.00,,---,0.00,VWS V14.01,2013-02-28 07:30:00,
2013-02-28 01:31:00,23.5,18.3,29.00,NNW,338,0.0,0.0,80,0.00,,---,0.00,VWS V14.01,2013-02-28 07:31:00,
2013-02-28 01:32:00,23.5,18.3,29.00,NNW,338,0.0,0.0,80,0.00,,---,0.00,VWS V14.01,2013-02-28 07:32:00,
2013-02-28 01:33:00,23.5,18.3,29.00,NW,315,0.0,0.0,80,0.00,,---,0.00,VWS V14.01,2013-02-28 07:33:00,
2013-02-28 01:34:00,23.5,18.3,29.00,NNW,338,1.6,1.6,80,0.00,,---,0.00,VWS V14.01,2013-02-28 07:34:00,
2013-02-28 01:35:00,23.5,18.3,29.00,WSW,248,2.9,2.9,80,0.00,,---,0.00,VWS V14.01,2013-02-28 07:35:00,
2013-02-28 01:36:00,23.5,18.3,29.00,SW,225,0.9,1.3,80,0.00,,---,0.00,VWS V14.01,2013-02-28 07:36:00,
2013-02-28 01:37:00,23.5,18.3,29.00,NW,315,1.1,1.1,80,0.00,,---,0.00,VWS V14.01,2013-02-28 07:37:00,
2013-02-28 01:38:00,23.5,18.3,29.00,ENE,68,0.0,1.3,80,0.00,,---,0.00,VWS V14.01,2013-02-28 07:38:00,
2013-02-28 01:39:00,23.5,18.3,29.00,WSW,248,2.9,2.9,80,0.00,,---,0.00,VWS V14.01,2013-02-28 07:39:00,
2013-02-28 01:40:00,23.5,18.3,29.00,SW,225,1.6,1.6,80,0.00,,---,0.00,VWS V14.01,2013-02-28 07:40:00,
2013-02-28 01:41:00,23.5,18.3,29.00,WSW,248,2.9,2.9,80,0.00,,---,0.00,VWS V14.01,2013-02-28 07:41:00,
2013-02-28 01:42:00,23.5,18.3,29.00,West,270,1.1,2.9,80,0.00,,---,0.00,VWS V14.01,2013-02-28 07:42:00,
2013-02-28 01:43:00,23.5,18.3,29.00,ENE,68,2.5,2.5,80,0.00,,---,0.00,VWS V14.01,2013-02-28 07:43:00,
2013-02-28 01:44:00,23.5,18.3,29.00,SW,225,1.6,2.5,80,0.00,,---,0.00,VWS V14.01,2013-02-28 07:44:00,
2013-02-28 01:45:00,23.5,18.6,29.03,SW,225,3.4,3.4,81,0.00,,---,0.00,VWS V14.01,2013-02-28 07:45:00,
2013-02-28 01:46:00,23.5,18.3,29.00,NW,315,0.0,2.0,80,0.00,,---,0.00,VWS V14.01,2013-02-28 07:46:00,
2013-02-28 01:47:00,23.5,18.3,29.00,NNW,338,0.0,0.0,80,0.00,,---,0.00,VWS V14.01,2013-02-28 07:47:00,
2013-02-28 01:48:00,23.5,18.6,29.03,NNW,338,0.0,0.0,81,0.00,,---,0.00,VWS V14.01,2013-02-28 07:48:00,
2013-02-28 01:49:00,23.5,18.6,29.03,SW,225,3.4,3.4,81,0.00,,---,0.00,VWS V14.01,2013-02-28 07:49:00,
2013-02-28 14:33:00,32.4,21.6,29.12,NNW,338,4.3,4.3,64,0.00,,---,0.00,VWS V14.01,2013-02-28 20:33:00,
2013-02-28 14:38:00,32.9,22.4,29.12,West,270,1.1,1.1,65,0.00,,---,0.00,VWS V14.01,2013-02-28 20:38:00,
2013-02-28 14:43:00,32.7,20.8,29.12,WNW,292,2.2,2.2,61,0.00,,---,0.00,VWS V14.01,2013-02-28 20:43:00,
2013-02-28 14:49:00,32.9,21.3,29.12,WSW,248,2.5,2.9,62,0.00,,---,0.00,VWS V14.01,2013-02-28 20:49:00,
2013-02-28 14:54:00,32.7,20.8,29.12,WNW,292,0.0,1.1,61,0.00,,---,0.00,VWS V14.01,2013-02-28 20:54:00,
2013-02-28 14:59:00,32.7,21.1,29.12,WNW,292,0.0,0.0,62,0.00,,---,0.00,VWS V14.01,2013-02-28 20:59:00,
2013-02-28 15:04:00,32.2,20.6,29.12,WSW,248,0.0,3.1,62,0.00,,---,0.00,VWS V14.01,2013-02-28 21:04:00,
2013-02-28 15:09:00,32.0,20.9,29.12,NNW,338,0.0,0.0,63,0.00,,---,0.00,VWS V14.01,2013-02-28 21:09:00,
2013-02-28 15:14:00,31.6,21.2,29.12,WNW,292,0.0,0.0,65,0.00,,---,0.00,VWS V14.01,2013-02-28 21:14:00,
2013-02-28 15:19:00,31.3,21.3,29.12,NW,315,0.0,0.0,66,0.00,,---,0.00,VWS V14.01,2013-02-28 21:19:00,
2013-02-28 15:24:00,31.3,21.6,29.12,WNW,292,0.0,0.0,67,0.00,,---,0.00,VWS V14.01,2013-02-28 21:24:00,
2013-02-28 15:29:00,31.3,22.0,29.12,WNW,292,1.1,2.5,68,0.00,,---,0.00,VWS V14.01,2013-02-28 21:29:00,
2013-02-28 15:34:00,31.1,22.1,29.12,WNW,292,0.0,1.3,69,0.00,,---,0.00,VWS V14.01,2013-02-28 21:34:00,
2013-02-28 15:39:00,31.3,22.3,29.12,WSW,248,1.6,1.6,69,0.00,,---,0.00,VWS V14.01,2013-02-28 21:39:00,
2013-02-28 15:45:00,31.1,22.5,29.12,WNW,292,0.0,0.0,70,0.00,,---,0.00,VWS V14.01,2013-02-28 21:45:00,
2013-02-28 15:50:00,31.1,22.5,29.12,West,270,0.0,1.1,70,0.00,,---,0.00,VWS V14.01,2013-02-28 21:50:00,
2013-02-28 15:55:00,30.9,22.6,29.12,WSW,248,2.2,2.2,71,0.00,,---,0.00,VWS V14.01,2013-02-28 21:55:00,
2013-02-28 16:00:00,30.7,22.5,29.12,WNW,292,0.0,2.0,71,0.00,,---,0.00,VWS V14.01,2013-02-28 22:00:00,
2013-02-28 16:05:00,30.6,22.3,29.12,WNW,292,1.3,1.3,71,0.00,,---,0.00,VWS V14.01,2013-02-28 22:05:00,
2013-02-28 16:10:00,30.4,22.5,29.12,WNW,292,2.2,2.2,72,0.00,,---,0.00,VWS V14.01,2013-02-28 22:10:00,
2013-02-28 16:15:00,30.4,22.8,29.12,WSW,248,0.0,0.0,73,0.00,,---,0.00,VWS V14.01,2013-02-28 22:15:00,
2013-02-28 16:20:00,30.4,22.8,29.12,West,270,0.0,0.0,73,0.00,,---,0.00,VWS V14.01,2013-02-28 22:20:00,
2013-02-28 16:25:00,30.4,23.1,29.12,West,270,0.0,0.0,74,0.00,,---,0.00,VWS V14.01,2013-02-28 22:25:00,
2013-02-28 16:30:00,30.4,23.1,29.14,West,270,0.0,0.0,74,0.00,,---,0.00,VWS V14.01,2013-02-28 22:30:00,
2013-02-28 16:35:00,30.4,23.1,29.14,SW,225,3.1,3.1,74,0.00,,---,0.00,VWS V14.01,2013-02-28 22:35:00,
2013-02-28 16:40:00,30.4,23.1,29.14,WSW,248,1.6,3.1,74,0.00,,---,0.00,VWS V14.01,2013-02-28 22:40:00,
2013-02-28 16:45:00,30.6,23.3,29.14,West,270,0.0,0.0,74,0.00,,---,0.00,VWS V14.01,2013-02-28 22:45:00,
2013-02-28 16:50:00,30.6,23.6,29.14,WNW,292,0.0,0.0,75,0.00,,---,0.00,VWS V14.01,2013-02-28 22:50:00,
2013-02-28 16:56:00,30.4,23.4,29.14,WNW,292,0.0,0.0,75,0.00,,---,0.00,VWS V14.01,2013-02-28 22:56:00,
2013-02-28 17:01:00,30.2,23.2,29.12,West,270,1.1,2.9,75,0.00,,---,0.00,VWS V14.01,2013-02-28 23:01:00,
2013-02-28 17:06:00,30.2,23.2,29.12,WNW,292,0.0,1.6,75,0.00,,---,0.00,VWS V14.01,2013-02-28 23:06:00,
2013-02-28 17:11:00,30.2,23.2,29.12,WSW,248,1.1,1.1,75,0.00,,---,0.00,VWS V14.01,2013-02-28 23:11:00,
2013-02-28 17:16:00,30.2,23.2,29.14,WSW,248,0.9,4.3,75,0.00,,---,0.00,VWS V14.01,2013-02-28 23:16:00,
2013-02-28 17:21:00,30.2,23.2,29.14,NW,315,0.0,0.0,75,0.00,,---,0.00,VWS V14.01,2013-02-28 23:21:00,
2013-02-28 17:26:00,30.0,23.1,29.14,West,270,0.9,1.3,75,0.00,,---,0.00,VWS V14.01,2013-02-28 23:26:00,
2013-02-28 17:31:00,30.0,23.1,29.14,WNW,292,0.0,0.0,75,0.00,,---,0.00,VWS V14.01,2013-02-28 23:31:00,
2013-02-28 17:36:00,29.8,23.2,29.14,WSW,248,0.0,2.7,76,0.00,,---,0.00,VWS V14.01,2013-02-28 23:36:00,
2013-02-28 17:41:00,29.8,23.2,29.14,West,270,1.1,2.5,76,0.00,,---,0.00,VWS V14.01,2013-02-28 23:41:00,
2013-02-28 17:46:00,29.7,23.0,29.14,SSW,202,0.0,0.0,76,0.00,,---,0.00,VWS V14.01,2013-02-28 23:46:00,
2013-02-28 17:51:00,29.7,23.0,29.14,SW,225,0.0,0.9,76,0.00,,---,0.00,VWS V14.01,2013-02-28 23:51:00,
2013-02-28 17:57:00,29.5,22.9,29.14,WNW,292,0.0,0.0,76,0.00,,---,0.00,VWS V14.01,2013-02-28 23:57:00,
2013-02-28 18:02:00,29.5,22.9,29.14,WNW,292,0.0,0.0,76,0.00,,---,0.00,VWS V14.01,2013-03-01 00:02:00,
2013-02-28 18:07:00,29.5,22.9,29.14,SW,225,1.1,1.1,76,0.00,,---,0.00,VWS V14.01,2013-03-01 00:07:00,
2013-02-28 18:12:00,29.5,23.2,29.14,WNW,292,0.0,0.0,77,0.00,,---,0.00,VWS V14.01,2013-03-01 00:12:00,
2013-02-28 18:17:00,29.3,22.7,29.14,WNW,292,0.0,0.0,76,0.00,,---,0.00,VWS V14.01,2013-03-01 00:17:00,
2013-02-28 18:22:00,29.3,23.0,29.14,West,270,0.0,0.0,77,0.00,,---,0.00,VWS V14.01,2013-03-01 00:22:00,
2013-02-28 18:27:00,29.3,22.7,29.14,WSW,248,0.9,0.9,76,0.00,,---,0.00,VWS V14.01,2013-03-01 00:27:00,
2013-02-28 18:32:00,29.3,23.0,29.14,WSW,248,1.3,1.3,77,0.00,,---,0.00,VWS V14.01,2013-03-01 00:32:00,
2013-02-28 18:37:00,29.1,22.8,29.14,WNW,292,0.0,0.0,77,0.00,,---,0.00,VWS V14.01,2013-03-01 00:37:00,
2013-02-28 18:42:00,29.1,22.8,29.14,WNW,292,0.0,0.0,77,0.00,,---,0.00,VWS V14.01,2013-03-01 00:42:00,
2013-02-28 18:47:00,29.1,22.8,29.14,WNW,292,0.0,0.0,77,0.00,,---,0.00,VWS V14.01,2013-03-01 00:47:00,
2013-02-28 18:53:00,28.9,23.0,29.14,NW,315,0.0,0.0,78,0.00,,---,0.00,VWS V14.01,2013-03-01 00:53:00,
2013-02-28 18:58:00,28.9,23.0,29.14,SW,225,1.6,2.7,78,0.00,,---,0.00,VWS V14.01,2013-03-01 00:58:00,
2013-02-28 19:03:00,28.9,23.0,29.14,WNW,292,0.0,0.0,78,0.00,,---,0.00,VWS V14.01,2013-03-01 01:03:00,
2013-02-28 19:08:00,28.9,23.0,29.14,WNW,292,0.0,0.0,78,0.00,,---,0.00,VWS V14.01,2013-03-01 01:08:00,
2013-02-28 19:13:00,28.9,23.0,29.14,WNW,292,0.0,0.0,78,0.00,,---,0.00,VWS V14.01,2013-03-01 01:13:00,
2013-02-28 19:18:00,28.9,23.0,29.14,WNW,292,0.0,0.0,78,0.00,,---,0.00,VWS V14.01,2013-03-01 01:18:00,
2013-02-28 19:23:00,28.8,22.8,29.14,West,270,0.9,1.3,78,0.00,,---,0.00,VWS V14.01,2013-03-01 01:23:00,
2013-02-28 19:28:00,28.8,22.8,29.14,WNW,292,0.0,0.0,78,0.00,,---,0.00,VWS V14.01,2013-03-01 01:28:00,
2013-02-28 19:33:00,28.6,22.6,29.14,WNW,292,0.0,0.9,78,0.00,,---,0.00,VWS V14.01,2013-03-01 01:33:00,
2013-02-28 19:38:00,28.6,22.6,29.14,West,270,0.0,0.0,78,0.00,,---,0.00,VWS V14.01,2013-03-01 01:38:00,
2013-02-28 19:43:00,28.6,22.6,29.14,ESE,112,0.0,0.0,78,0.00,,---,0.00,VWS V14.01,2013-03-01 01:43:00,
2013-02-28 19:49:00,28.6,22.6,29.14,WNW,292,0.0,0.0,78,0.00,,---,0.00,VWS V14.01,2013-03-01 01:49:00,
2013-02-28 19:54:00,28.6,22.6,29.14,WSW,248,0.0,0.0,78,0.00,,---,0.00,VWS V14.01,2013-03-01 01:54:00,
2013-02-28 19:59:00,28.4,22.4,29.14,WNW,292,0.0,0.9,78,0.00,,---,0.00,VWS V14.01,2013-03-01 01:59:00,
2013-02-28 20:04:00,28.4,22.4,29.14,West,270,1.3,1.3,78,0.00,,---,0.00,VWS V14.01,2013-03-01 02:04:00,
2013-02-28 20:09:00,28.2,22.2,29.14,WNW,292,0.0,0.0,78,0.00,,---,0.00,VWS V14.01,2013-03-01 02:09:00,
2013-02-28 20:14:00,28.2,22.2,29.17,WNW,292,0.0,2.0,78,0.00,,---,0.00,VWS V14.01,2013-03-01 02:14:00,
2013-02-28 20:19:00,28.2,22.2,29.17,WNW,292,0.0,0.0,78,0.00,,---,0.00,VWS V14.01,2013-03-01 02:19:00,
2013-02-28 20:24:00,28.0,22.1,29.17,WSW,248,0.0,0.0,78,0.00,,---,0.00,VWS V14.01,2013-03-01 02:24:00,
2013-02-28 20:29:00,28.0,22.1,29.14,WNW,292,0.0,1.3,78,0.00,,---,0.00,VWS V14.01,2013-03-01 02:29:00,
2013-02-28 20:34:00,28.0,22.4,29.14,WSW,248,0.0,0.0,79,0.00,,---,0.00,VWS V14.01,2013-03-01 02:34:00,
2013-02-28 20:39:00,27.9,22.2,29.14,WNW,292,0.0,3.1,79,0.00,,---,0.00,VWS V14.01,2013-03-01 02:39:00,
2013-02-28 20:44:00,27.9,22.2,29.17,WSW,248,0.0,2.0,79,0.00,,---,0.00,VWS V14.01,2013-03-01 02:44:00,
2013-02-28 20:49:00,27.9,22.2,29.17,West,270,0.0,0.0,79,0.00,,---,0.00,VWS V14.01,2013-03-01 02:49:00,
2013-02-28 20:55:00,27.9,22.2,29.17,WNW,292,0.0,0.9,79,0.00,,---,0.00,VWS V14.01,2013-03-01 02:55:00,
2013-02-28 21:00:00,27.9,22.2,29.17,WSW,248,0.0,0.0,79,0.00,,---,0.00,VWS V14.01,2013-03-01 03:00:00,
2013-02-28 21:05:00,27.9,22.2,29.17,WNW,292,0.0,0.0,79,0.00,,---,0.00,VWS V14.01,2013-03-01 03:05:00,
2013-02-28 21:10:00,27.9,22.2,29.17,WNW,292,0.0,0.0,79,0.00,,---,0.00,VWS V14.01,2013-03-01 03:10:00,
2013-02-28 21:15:00,27.7,22.0,29.17,West,270,0.0,1.3,79,0.00,,---,0.00,VWS V14.01,2013-03-01 03:15:00,
2013-02-28 21:20:00,27.7,22.0,29.17,WNW,292,0.0,0.0,79,0.00,,---,0.00,VWS V14.01,2013-03-01 03:20:00,
2013-02-28 21:25:00,27.7,22.0,29.17,WNW,292,0.0,0.0,79,0.00,,---,0.00,VWS V14.01,2013-03-01 03:25:00,
2013-02-28 21:30:00,27.7,22.3,29.17,West,270,1.1,1.1,80,0.00,,---,0.00,VWS V14.01,2013-03-01 03:30:00,
2013-02-28 21:35:00,27.7,22.3,29.17,WNW,292,0.0,0.0,80,0.00,,---,0.00,VWS V14.01,2013-03-01 03:35:00,
2013-02-28 21:40:00,27.7,22.3,29.17,WNW,292,0.0,0.0,80,0.00,,---,0.00,VWS V14.01,2013-03-01 03:40:00,
2013-02-28 21:45:00,27.5,22.1,29.17,WNW,292,0.0,0.0,80,0.00,,---,0.00,VWS V14.01,2013-03-01 03:45:00,
2013-02-28 21:51:00,27.5,22.1,29.17,SSE,158,0.0,1.1,80,0.00,,---,0.00,VWS V14.01,2013-03-01 03:51:00,
2013-02-28 21:56:00,27.5,22.1,29.17,WNW,292,0.0,0.0,80,0.00,,---,0.00,VWS V14.01,2013-03-01 03:56:00,
2013-02-28 22:01:00,27.3,22.0,29.17,WNW,292,0.0,0.9,80,0.00,,---,0.00,VWS V14.01,2013-03-01 04:01:00,
2013-02-28 22:06:00,27.3,22.0,29.17,WNW,292,0.0,2.0,80,0.00,,---,0.00,VWS V14.01,2013-03-01 04:06:00,
2013-02-28 22:11:00,27.3,22.0,29.17,WSW,248,0.0,0.9,80,0.00,,---,0.00,VWS V14.01,2013-03-01 04:11:00,
2013-02-28 22:16:00,27.1,21.8,29.14,NW,315,0.0,0.0,80,0.00,,---,0.00,VWS V14.01,2013-03-01 04:16:00,
2013-02-28 22:21:00,27.1,21.8,29.14,WNW,292,0.0,1.3,80,0.00,,---,0.00,VWS V14.01,2013-03-01 04:21:00,
2013-02-28 22:26:00,27.1,21.8,29.14,WSW,248,0.0,0.0,80,0.00,,---,0.00,VWS V14.01,2013-03-01 04:26:00,
2013-02-28 22:31:00,27.1,21.8,29.14,West,270,1.3,1.3,80,0.00,,---,0.00,VWS V14.01,2013-03-01 04:31:00,
2013-02-28 22:36:00,27.0,21.6,29.14,WNW,292,0.0,0.0,80,0.00,,---,0.00,VWS V14.01,2013-03-01 04:36:00,
2013-02-28 22:41:00,27.0,21.6,29.14,South,180,0.0,0.0,80,0.00,,---,0.00,VWS V14.01,2013-03-01 04:41:00,
2013-02-28 22:46:00,27.0,21.9,29.14,WNW,292,0.0,1.1,81,0.00,,---,0.00,VWS V14.01,2013-03-01 04:46:00,
2013-02-28 22:51:00,27.0,21.9,29.14,WNW,292,0.0,0.0,81,0.00,,---,0.00,VWS V14.01,2013-03-01 04:51:00,
2013-02-28 22:56:00,27.0,21.6,29.14,WSW,248,0.0,0.0,80,0.00,,---,0.00,VWS V14.01,2013-03-01 04:56:00,
2013-02-28 23:00:00,27.0,21.9,29.14,West,270,0.0,0.0,81,0.00,,---,0.00,VWS V14.01,2013-03-01 05:00:00,
2013-02-28 23:01:00,27.0,21.9,29.14,West,270,0.0,0.0,81,0.00,,---,0.00,VWS V14.01,2013-03-01 05:01:00,
2013-02-28 23:06:00,27.0,21.9,29.14,NW,315,0.9,1.6,81,0.00,,---,0.00,VWS V14.01,2013-03-01 05:06:00,
2013-02-28 23:11:00,27.0,21.9,29.14,WNW,292,1.1,1.1,81,0.00,,---,0.00,VWS V14.01,2013-03-01 05:11:00,
2013-02-28 23:16:00,27.0,21.6,29.14,WNW,292,1.6,2.5,80,0.00,,---,0.00,VWS V14.01,2013-03-01 05:16:00,
2013-02-28 23:21:00,27.0,21.6,29.14,West,270,0.9,0.9,80,0.00,,---,0.00,VWS V14.01,2013-03-01 05:21:00,
2013-02-28 23:26:00,27.0,21.6,29.14,SW,225,1.3,1.3,80,0.00,,---,0.00,VWS V14.01,2013-03-01 05:26:00,
2013-02-28 23:31:00,27.0,21.6,29.14,West,270,0.0,0.0,80,0.00,,---,0.00,VWS V14.01,2013-03-01 05:31:00,
2013-02-28 23:36:00,27.0,21.3,29.14,West,270,0.0,0.0,79,0.00,,---,0.00,VWS V14.01,2013-03-01 05:36:00,
2013-02-28 23:41:00,27.0,21.3,29.14,WNW,292,0.9,1.6,79,0.00,,---,0.00,VWS V14.01,2013-03-01 05:41:00,
2013-02-28 23:46:00,27.0,21.3,29.14,WSW,248,0.0,0.0,79,0.00,,---,0.00,VWS V14.01,2013-03-01 05:46:00,
2013-02-28 23:52:00,27.0,21.0,29.14,WNW,292,0.0,0.0,78,0.00,,---,0.00,VWS V14.01,2013-03-01 05:52:00,
2013-02-28 23:57:00,27.0,21.0,29.14,WSW,248,0.0,2.0,78,0.00,,---,0.00,VWS V14.01,2013-03-01 05:57:00,